166036608,2008-05-12T09:31:51.354,-1806.43, 8959245,  72.57, -22.70, 2574353, 2574365, 2574068, 2574318, 2574384,     204,    1.36,   0.717,   16.46,   31.22,    0.05
166036609,2008-05-12T09:31:55.388,-1802.39, 8936341,  72.66, -22.70, 2574325, 2574294, 2574045, 2574276, 2574354,     195,    1.52,   0.663,   15.49,   28.47,    0.00
166036610,2008-05-12T09:32:01.354,-1796.43, 8902314,  72.76, -22.70, 2574348, 2574309, 2574030, 2574243, 2574377,     202,    1.28,   0.609,   12.08,   29.92,    0.05
166036611,2008-05-12T09:32:06.354,-1791.43, 8873654,  72.83, -22.70, 2574355, 2574234, 2574048, 2574249, 2574383,     171,    1.17,   0.567,   15.83,   30.14,    0.02
166036612,2008-05-12T09:32:10.388,-1787.39, 8850480,  72.87, -22.71, 2574358, 2574204, 2574011, 2574204, 2574386,     196,    1.05,   0.541,   14.45,   27.50,    0.02
166036613,2008-05-12T09:32:14.422,-1783.36, 8827636,  72.91, -22.72, 2574350, 2574272, 2574039, 2574224, 2574378,     206,    1.12,   0.510,   13.48,   27.48,    0.02
166036614,2008-05-12T09:32:18.456,-1779.32, 8804342,  72.95, -22.71, 2574362, 2574262, 2574051, 2574231, 2574390,     171,    0.80,   0.493,   15.27,   30.24,    0.06
166036615,2008-05-12T09:32:22.490,-1775.29, 8781228,  72.99, -22.72, 2574378, 2574287, 2574106, 2574282, 2574407,     155,    1.56,   0.477,   16.27,   30.31,    0.06
166036616,2008-05-12T09:32:26.524,-1771.26, 8758234,  73.03, -22.71, 2574324, 2574254, 2574038, 2574211, 2574352,     179,    1.21,   0.463,   15.67,   28.45,    0.05
166036617,2008-05-12T09:32:30.558,-1767.22, 8735150,  73.08, -22.72, 2574327, 2574302, 2574103, 2574269, 2574356,     166,    1.36,   0.438,   15.28,   31.69,    0.01
166036618,2008-05-12T09:32:35.353,-1762.43, 8707839,  73.12, -22.72, 2574360, 2574245, 2574087, 2574249, 2574389,     155,    1.34,   0.421,   16.30,   32.24,    0.02
166036619,2008-05-12T09:32:39.387,-1758.39, 8684725,  73.17, -22.71, 2574366, 2574279, 2574107, 2574266, 2574395,     147,    1.37,   0.403,   16.94,   31.59,    0.09
166036620,2008-05-12T09:32:43.421,-1754.36, 8661671,  73.21, -22.71, 2574383, 2574292, 2574103, 2574259, 2574412,     168,    1.11,   0.394,   16.20,   31.39,    0.04
166036621,2008-05-12T09:32:47.455,-1750.32, 8638677,  73.26, -22.71, 2574323, 2574320, 2574170, 2574321, 2574353,     143,    2.14,   0.369,   17.84,   35.80,    0.20
166036622,2008-05-12T09:32:51.489,-1746.29, 8615653,  73.30, -22.70, 2574336, 2574299, 2574117, 2574265, 2574365,     160,    1.56,   0.354,   16.55,   32.56,    0.04
166036623,2008-05-12T09:32:55.523,-1742.26, 8592659,  73.35, -22.70, 2574323, 2574298, 2574171, 2574316, 2574353,     109,    2.71,   0.336,   18.62,   35.42,    0.21
166036624,2008-05-12T09:32:59.557,-1738.22, 8569635,  73.41, -22.69, 2574307, 2574291, 2574148, 2574290, 2574337,     126,    2.10,   0.316,   17.46,   33.45,    0.16
166036625,2008-05-12T09:33:04.353,-1733.43, 8542294,  73.46, -22.69, 2574309, 2574297, 2574165, 2574303, 2574340,     127,    2.45,   0.297,   18.14,   34.64,    0.21
166036626,2008-05-12T09:33:08.387,-1729.39, 8519359,  73.52, -22.68, 2574319, 2574273, 2574131, 2574266, 2574350,     127,    1.81,   0.274,   16.22,   32.28,    0.13
166036627,2008-05-12T09:33:12.421,-1725.36, 8496365,  73.57, -22.67, 2574289, 2574278, 2574154, 2574287, 2574320,     108,    2.22,   0.259,   17.62,   33.84,    0.16
166036628,2008-05-12T09:33:16.455,-1721.32, 8473341,  73.62, -22.66, 2574316, 2574256, 2574120, 2574250, 2574348,     127,    1.70,   0.246,   16.01,   32.12,    0.08
166036629,2008-05-12T09:33:20.489,-1717.29, 8450377,  73.68, -22.65, 2574296, 2574227, 2574120, 2574248, 2574328,     116,    1.90,   0.219,   17.15,   32.25,    0.11
166036630,2008-05-12T09:33:24.523,-1713.26, 8427353,  73.73, -22.63, 2574303, 2574262, 2574150, 2574276, 2574336,      89,    2.05,   0.210,   18.14,   34.96,    0.18
166036631,2008-05-12T09:33:28.557,-1709.22, 8404389,  73.79, -22.62, 2574278, 2574260, 2574160, 2574284, 2574311,      98,    2.91,   0.190,   18.43,   35.50,    0.24
166036632,2008-05-12T09:33:33.353,-1704.43, 8377048,  73.86, -22.61, 2574299, 2574241, 2574114, 2574235, 2574332,     121,    1.41,   0.163,   17.09,   31.60,    0.10
166036633,2008-05-12T09:33:37.387,-1700.39, 8354114,  73.91, -22.59, 2574270, 2574246, 2574150, 2574271, 2574304,      76,    2.07,   0.147,   20.06,   36.81,    0.21
166036634,2008-05-12T09:33:41.421,-1696.36, 8331180,  73.97, -22.58, 2574284, 2574242, 2574137, 2574256, 2574318,      93,    1.74,   0.126,   18.59,   34.16,    0.12
166036635,2008-05-12T09:33:45.455,-1692.32, 8308276,  74.01, -22.58, 2574280, 2574213, 2574116, 2574234, 2574314,      89,    0.98,   0.125,   18.67,   32.33,    0.10
166036636,2008-05-12T09:33:49.489,-1688.29, 8285252,  74.04, -22.62, 2574289, 2574268, 2574148, 2574269, 2574322,      94,    1.32,   0.171,   18.73,   34.09,    0.11
166036637,2008-05-12T09:33:53.523,-1684.26, 8262348,  74.06, -22.67, 2574289, 2574271, 2574149, 2574277, 2574319,      89,    1.46,   0.254,   19.22,   35.25,    0.14
166036638,2008-05-12T09:33:57.557,-1680.22, 8239414,  74.07, -22.75, 2574309, 2574271, 2574135, 2574279, 2574336,      99,    1.61,   0.374,   16.83,   32.26,    0.14
166036639,2008-05-12T09:34:02.353,-1675.43, 8212102,  74.09, -22.80, 2574329, 2574308, 2574149, 2574315, 2574356,     100,    1.34,   0.486,   18.61,   34.92,    0.08
166036640,2008-05-12T09:34:06.387,-1671.39, 8189198,  74.10, -22.79, 2574301, 2574321, 2574145, 2574318, 2574327,      89,    1.83,   0.515,   19.33,   35.62,    0.17
166036641,2008-05-12T09:34:10.421,-1667.36, 8166294,  74.11, -22.78, 2574292, 2574277, 2574089, 2574270, 2574320,     130,    0.91,   0.550,   18.30,   33.09,    0.04
166036642,2008-05-12T09:34:14.455,-1663.32, 8143450,  74.13, -22.77, 2574350, 2574249, 2574125, 2574316, 2574377,     112,    1.57,   0.585,   17.43,   33.56,    0.01
166036643,2008-05-12T09:34:18.489,-1659.29, 8120456,  74.17, -22.73, 2574330, 2574312, 2574145, 2574331, 2574357,     113,    2.21,   0.570,   19.53,   37.07,    0.16
166036644,2008-05-12T09:34:22.523,-1655.26, 8097551,  74.23, -22.67, 2574339, 2574285, 2574117, 2574289, 2574365,     123,    1.81,   0.518,   17.55,   34.44,    0.11
166036645,2008-05-12T09:34:26.557,-1651.22, 8074647,  74.30, -22.61, 2574338, 2574272, 2574128, 2574287, 2574364,     100,    1.34,   0.466,   17.95,   34.06,    0.10
166036646,2008-05-12T09:34:31.353,-1646.43, 8047426,  74.38, -22.54, 2574345, 2574272, 2574127, 2574272, 2574372,     106,    1.44,   0.401,   19.10,   35.10,    0.08
166036647,2008-05-12T09:34:35.387,-1642.39, 8024552,  74.45, -22.49, 2574349, 2574293, 2574176, 2574312, 2574376,      72,    2.83,   0.352,   21.95,   39.16,    0.23
166036648,2008-05-12T09:34:39.421,-1638.36, 8001678,  74.53, -22.44, 2574313, 2574285, 2574163, 2574290, 2574342,      93,    2.41,   0.297,   19.08,   36.74,    0.18
166036649,2008-05-12T09:34:43.455,-1634.32, 7978774,  74.60, -22.39, 2574359, 2574288, 2574198, 2574319, 2574388,      68,    3.10,   0.252,   23.90,   40.84,    0.28
166036650,2008-05-12T09:34:47.489,-1630.29, 7955930,  74.68, -22.34, 2574320, 2574280, 2574158, 2574273, 2574350,      96,    1.56,   0.196,   19.59,   36.90,    0.14
166036651,2008-05-12T09:34:51.523,-1626.26, 7933056,  74.77, -22.29, 2574392, 2574274, 2574195, 2574306, 2574424,      66,    2.89,   0.131,   23.40,   40.29,    0.26
166036652,2008-05-12T09:34:55.557,-1622.22, 7910241,  74.84, -22.24, 2574289, 2574246, 2574163, 2574272, 2574323,      78,    2.70,   0.084,   21.31,   37.67,    0.21
166036653,2008-05-12T09:35:00.352,-1617.43, 7883050,  74.95, -22.19, 2574292, 2574241, 2574136, 2574243, 2574327,      90,    1.39,   0.018,   17.96,   28.21,    0.09
166036654,2008-05-12T09:35:04.386,-1613.39, 7860206,  75.04, -22.14, 2574308, 2574256, 2574179, 2574286, 2574341,      76,    3.07,   0.063,   23.18,   40.05,    0.27
166036655,2008-05-12T09:35:08.420,-1609.36, 7837392,  75.13, -22.09, 2574307, 2574252, 2574127, 2574236, 2574339,      99,    1.37,   0.125,   20.00,   35.24,    0.10
166036656,2008-05-12T09:35:12.454,-1605.33, 7814547,  75.22, -22.04, 2574304, 2574274, 2574157, 2574269, 2574334,      98,    1.91,   0.188,   20.32,   38.49,    0.17
166036657,2008-05-12T09:35:16.488,-1601.29, 7791703,  75.32, -21.99, 2574278, 2574266, 2574131, 2574249, 2574306,     114,    1.62,   0.258,   19.24,   36.19,    0.13
166036658,2008-05-12T09:35:20.522,-1597.26, 7769009,  75.42, -21.95, 2574281, 2574226, 2574087, 2574214, 2574308,     123,    1.09,   0.323,   19.06,   33.48,    0.07
166036659,2008-05-12T09:35:24.556,-1593.22, 7746105,  75.51, -21.90, 2574267, 2574258, 2574104, 2574241, 2574293,     122,    1.41,   0.392,   18.23,   34.45,    0.10
166036660,2008-05-12T09:35:29.352,-1588.43, 7719004,  75.60, -21.86, 2574265, 2574267, 2574106, 2574252, 2574290,     128,    1.40,   0.438,   18.50,   33.87,    0.10
166036661,2008-05-12T09:35:33.386,-1584.39, 7696250,  75.65, -21.82, 2574302, 2574207, 2574104, 2574250, 2574327,     109,    1.20,   0.442,   19.36,   34.35,    0.01
166036662,2008-05-12T09:35:37.420,-1580.36, 7673375,  75.67, -21.81, 2574308, 2574251, 2574112, 2574251, 2574333,     108,    1.77,   0.409,   19.64,   36.12,    0.10
166036663,2008-05-12T09:35:41.454,-1576.33, 7650651,  75.71, -21.79, 2574320, 2574249, 2574129, 2574263, 2574346,      90,    2.02,   0.389,   20.92,   37.26,    0.15
166036664,2008-05-12T09:35:45.488,-1572.29, 7627807,  75.74, -21.78, 2574332, 2574290, 2574173, 2574303, 2574357,      81,    3.12,   0.363,   23.17,   40.61,    0.25
166036665,2008-05-12T09:35:49.522,-1568.26, 7605053,  75.76, -21.76, 2574267, 2574253, 2574113, 2574238, 2574293,     114,    1.85,   0.337,   18.01,   35.03,    0.08
166036666,2008-05-12T09:35:53.556,-1564.22, 7582358,  75.81, -21.74, 2574306, 2574274, 2574141, 2574264, 2574332,     102,    2.12,   0.326,   19.67,   36.58,    0.08
166036667,2008-05-12T09:35:58.352,-1559.43, 7555227,  75.86, -21.73, 2574312, 2574276, 2574167, 2574286, 2574338,      78,    2.70,   0.307,   23.17,   39.41,    0.20
166036668,2008-05-12T09:36:02.386,-1555.39, 7532473,  75.90, -21.72, 2574261, 2574252, 2574123, 2574242, 2574287,     109,    1.81,   0.300,   18.00,   35.83,    0.14
166036669,2008-05-12T09:36:06.420,-1551.36, 7509718,  75.95, -21.70, 2574336, 2574279, 2574169, 2574285, 2574362,      81,    2.29,   0.290,   23.14,   39.30,    0.19
166036670,2008-05-12T09:36:10.454,-1547.33, 7486964,  76.00, -21.69, 2574313, 2574272, 2574183, 2574299, 2574339,      58,    3.31,   0.285,   24.04,   40.52,    0.27
166036671,2008-05-12T09:36:14.488,-1543.29, 7464270,  76.05, -21.67, 2574274, 2574241, 2574117, 2574231, 2574301,     105,    1.18,   0.276,   19.48,   34.42,    0.09
166036672,2008-05-12T09:36:18.522,-1539.26, 7441516,  76.11, -21.66, 2574302, 2574269, 2574157, 2574273, 2574328,      81,    1.85,   0.293,   20.48,   37.33,    0.16
166036673,2008-05-12T09:36:22.556,-1535.22, 7418821,  76.16, -21.65, 2574307, 2574222, 2574108, 2574223, 2574333,      97,    0.69,   0.293,   18.47,   32.10,    0.06
166036674,2008-05-12T09:36:27.352,-1530.43, 7391780,  76.24, -21.63, 2574341, 2574285, 2574190, 2574308, 2574366,      62,    3.34,   0.311,   25.86,   43.48,    0.29
166036675,2008-05-12T09:36:31.386,-1526.39, 7369116,  76.30, -21.62, 2574331, 2574266, 2574160, 2574278, 2574356,      78,    3.11,   0.321,   21.62,   39.79,    0.22
166036676,2008-05-12T09:36:35.420,-1522.36, 7346392,  76.36, -21.61, 2574343, 2574288, 2574156, 2574276, 2574368,     100,    1.84,   0.337,   19.99,   37.80,    0.10
166036677,2008-05-12T09:36:39.454,-1518.33, 7323727,  76.44, -21.59, 2574354, 2574274, 2574154, 2574278, 2574379,     100,    2.12,   0.365,   18.92,   36.37,    0.13
166036678,2008-05-12T09:36:43.488,-1514.29, 7301063,  76.51, -21.58, 2574343, 2574271, 2574154, 2574283, 2574368,      78,    2.40,   0.396,   21.66,   38.77,    0.17
166036679,2008-05-12T09:36:47.522,-1510.26, 7278339,  76.58, -21.57, 2574309, 2574294, 2574163, 2574297, 2574333,      88,    2.23,   0.424,   21.85,   39.55,    0.13
166036680,2008-05-12T09:36:51.556,-1506.22, 7255645,  76.65, -21.55, 2574334, 2574308, 2574161, 2574299, 2574359,     106,    1.75,   0.446,   20.85,   38.59,    0.11
166036681,2008-05-12T09:36:56.352,-1501.43, 7228753,  76.70, -21.50, 2574316, 2574292, 2574170, 2574304, 2574341,      86,    2.61,   0.430,   21.12,   39.03,    0.20
166036682,2008-05-12T09:37:00.386,-1497.39, 7206059,  76.75, -21.47, 2574320, 2574275, 2574115, 2574248, 2574344,      96,    0.78,   0.423,   20.01,   36.73,    0.08
166036683,2008-05-12T09:37:04.420,-1493.36, 7183424,  76.80, -21.43, 2574294, 2574291, 2574128, 2574260, 2574318,     115,    1.28,   0.424,   19.18,   36.40,    0.00
166036684,2008-05-12T09:37:08.454,-1489.33, 7160790,  76.85, -21.39, 2574283, 2574289, 2574151, 2574281, 2574307,     104,    1.78,   0.417,   20.39,   37.73,    0.11
166036685,2008-05-12T09:37:12.488,-1485.29, 7138186,  76.90, -21.35, 2574272, 2574262, 2574152, 2574282, 2574296,      76,    2.58,   0.416,   21.07,   37.79,    0.17
166036686,2008-05-12T09:37:16.522,-1481.26, 7115551,  76.96, -21.32, 2574298, 2574261, 2574140, 2574271, 2574322,      92,    2.37,   0.424,   20.85,   37.41,    0.12
166036687,2008-05-12T09:37:20.556,-1477.22, 7092917,  77.02, -21.28, 2574310, 2574288, 2574151, 2574284, 2574334,      89,    1.69,   0.438,   21.35,   38.81,    0.08
166036688,2008-05-12T09:37:25.351,-1472.43, 7066056,  77.09, -21.24, 2574271, 2574222, 2574106, 2574241, 2574295,      96,    1.61,   0.446,   19.91,   35.23,    0.13
166036689,2008-05-12T09:37:29.385,-1468.39, 7043451,  77.16, -21.20, 2574269, 2574282, 2574144, 2574280, 2574294,      94,    1.74,   0.459,   21.55,   38.24,    0.11
166036690,2008-05-12T09:37:33.419,-1464.36, 7020877,  77.22, -21.16, 2574321, 2574269, 2574119, 2574259, 2574345,     104,    1.50,   0.475,   20.63,   36.94,    0.06
166036691,2008-05-12T09:37:37.453,-1460.33, 6998273,  77.29, -21.13, 2574365, 2574253, 2574133, 2574277, 2574389,      94,    1.53,   0.492,   21.72,   37.09,    0.05
166036692,2008-05-12T09:37:41.487,-1456.29, 6975698,  77.33, -21.09, 2574311, 2574300, 2574159, 2574300, 2574336,      96,    2.12,   0.483,   22.70,   40.86,    0.14
166036693,2008-05-12T09:37:45.521,-1452.26, 6953124,  77.36, -21.04, 2574319, 2574308, 2574182, 2574317, 2574343,      80,    2.15,   0.461,   24.37,   42.29,    0.17
166036694,2008-05-12T09:37:49.555,-1448.22, 6930610,  77.40, -20.98, 2574357, 2574285, 2574166, 2574298, 2574380,      89,    2.38,   0.448,   23.70,   38.64,    0.18
166036695,2008-05-12T09:37:54.351,-1443.43, 6903748,  77.44, -20.93, 2574350, 2574302, 2574172, 2574302, 2574374,      96,    2.24,   0.438,   23.22,   39.88,    0.16
166036696,2008-05-12T09:37:58.385,-1439.39, 6881263,  77.47, -20.88, 2574308, 2574289, 2574175, 2574301, 2574332,      78,    2.68,   0.422,   23.94,   40.65,    0.18
166036697,2008-05-12T09:38:02.419,-1435.36, 6858749,  77.52, -20.83, 2574320, 2574259, 2574143, 2574270, 2574343,      98,    2.26,   0.427,   22.63,   37.57,    0.14
166036698,2008-05-12T09:38:06.453,-1431.33, 6836205,  77.56, -20.78, 2574287, 2574259, 2574134, 2574261, 2574310,     101,    1.88,   0.431,   22.57,   36.66,    0.15
166036699,2008-05-12T09:38:10.487,-1427.29, 6813660,  77.60, -20.74, 2574315, 2574304, 2574182, 2574308, 2574338,      88,    2.66,   0.433,   23.49,   41.80,    0.18
166036700,2008-05-12T09:38:14.521,-1423.26, 6791146,  77.65, -20.69, 2574299, 2574276, 2574129, 2574258, 2574322,     111,    1.47,   0.443,   20.23,   37.73,    0.10
166036701,2008-05-12T09:38:18.555,-1419.22, 6768661,  77.69, -20.65, 2574329, 2574300, 2574183, 2574310, 2574352,      84,    3.28,   0.439,   23.30,   41.58,    0.20
166036702,2008-05-12T09:38:23.351,-1414.43, 6741920,  77.74, -20.65, 2574282, 2574283, 2574173, 2574290, 2574305,      74,    2.74,   0.389,   23.33,   40.85,    0.19
166036703,2008-05-12T09:38:27.385,-1410.39, 6719436,  77.77, -20.63, 2574398, 2574298, 2574176, 2574288, 2574421,      89,    2.01,   0.362,   23.35,   39.58,    0.11
166036704,2008-05-12T09:38:31.419,-1406.36, 6697071,  77.81, -20.62, 2574306, 2574201, 2574121, 2574227, 2574328,      88,    1.00,   0.323,   19.77,   35.68,    0.04
166036705,2008-05-12T09:38:35.453,-1402.33, 6674467,  77.86, -20.61, 2574327, 2574298, 2574195, 2574296, 2574350,      72,    2.48,   0.293,   24.70,   42.15,    0.18
166036706,2008-05-12T09:38:39.487,-1398.29, 6652012,  77.90, -20.59, 2574402, 2574293, 2574187, 2574284, 2574425,      74,    1.70,   0.265,   23.35,   39.47,    0.10
166036707,2008-05-12T09:38:43.521,-1394.26, 6629588,  77.95, -20.59, 2574358, 2574277, 2574186, 2574278, 2574382,      69,    1.87,   0.227,   24.08,   40.29,    0.15
166036708,2008-05-12T09:38:47.555,-1390.22, 6607134,  78.00, -20.58, 2574286, 2574266, 2574178, 2574268, 2574310,      66,    1.63,   0.204,   21.95,   37.74,    0.15
166036709,2008-05-12T09:38:52.351,-1385.43, 6580512,  78.07, -20.57, 2574357, 2574280, 2574181, 2574269, 2574381,      79,    1.44,   0.178,   16.76,   36.51,    0.10
166036710,2008-05-12T09:38:57.351,-1380.43, 6552721,  78.14, -20.56, 2574367, 2574277, 2574207, 2574292, 2574392,      56,    2.45,   0.153,   24.10,   40.66,    0.23
166036711,2008-05-12T09:39:01.385,-1376.39, 6530296,  78.20, -20.54, 2574364, 2574281, 2574216, 2574300, 2574389,      49,    2.56,   0.147,   24.72,   42.23,    0.25
166036712,2008-05-12T09:39:05.419,-1372.36, 6507902,  78.26, -20.53, 2574333, 2574271, 2574199, 2574283, 2574357,      51,    1.51,   0.142,   23.62,   40.09,    0.17
166036713,2008-05-12T09:39:09.453,-1368.33, 6485537,  78.32, -20.53, 2574363, 2574266, 2574199, 2574282, 2574387,      49,    1.66,   0.144,   23.51,   39.75,    0.19
166036714,2008-05-12T09:39:13.487,-1364.29, 6463143,  78.39, -20.52, 2574328, 2574281, 2574211, 2574296, 2574351,      48,    2.03,   0.168,   25.19,   41.10,    0.22
166036715,2008-05-12T09:39:17.521,-1360.26, 6440808,  78.46, -20.52, 2574362, 2574262, 2574187, 2574273, 2574385,      59,    1.33,   0.196,   22.18,   37.04,    0.12
166036716,2008-05-12T09:39:21.555,-1356.22, 6418414,  78.53, -20.51, 2574308, 2574275, 2574198, 2574287, 2574331,      51,    1.79,   0.224,   23.05,   40.21,    0.19
166036717,2008-05-12T09:39:26.351,-1351.43, 6391853,  78.62, -20.49, 2574287, 2574283, 2574211, 2574303, 2574309,      40,    3.14,   0.259,   23.61,   41.92,    0.27
166036718,2008-05-12T09:39:30.385,-1347.39, 6369488,  78.70, -20.48, 2574397, 2574299, 2574214, 2574310, 2574419,      47,    2.25,   0.297,   25.30,   42.55,    0.22
166036719,2008-05-12T09:39:34.419,-1343.36, 6347184,  78.78, -20.47, 2574314, 2574271, 2574185, 2574286, 2574336,      55,    1.68,   0.337,   21.01,   37.74,    0.16
166036720,2008-05-12T09:39:38.453,-1339.33, 6324849,  78.85, -20.47, 2574354, 2574312, 2574198, 2574306, 2574376,      83,    1.39,   0.382,   19.26,   37.03,    0.04
166036721,2008-05-12T09:39:42.487,-1335.29, 6302574,  78.93, -20.46, 2574351, 2574300, 2574188, 2574303, 2574374,      87,    1.56,   0.422,   19.04,   37.64,    0.09
166036723,2008-05-12T09:39:50.555,-1327.22, 6257995,  79.09, -20.39, 2574376, 2574284, 2574168, 2574288, 2574399,     107,    1.25,   0.455,   16.14,   33.29,    0.01
166036724,2008-05-12T09:39:55.350,-1322.43, 6231523,  79.20, -20.35, 2574371, 2574289, 2574171, 2574295, 2574395,     104,    1.29,   0.475,   16.50,   34.33,    0.08
166036725,2008-05-12T09:39:59.384,-1318.40, 6209339,  79.28, -20.29, 2574389, 2574251, 2574153, 2574278, 2574412,     129,    0.17,   0.477,   16.17,   30.58,    0.08
166036726,2008-05-12T09:40:03.418,-1314.36, 6187034,  79.35, -20.23, 2574387, 2574223, 2574135, 2574257, 2574410,     112,    0.21,   0.468,   15.68,   30.77,    0.00
166036727,2008-05-12T09:40:07.452,-1310.33, 6164759,  79.41, -20.16, 2574395, 2574285, 2574198, 2574314, 2574418,      67,    1.43,   0.445,   18.75,   37.77,    0.13
166036728,2008-05-12T09:40:11.486,-1306.29, 6142455,  79.46, -20.10, 2574392, 2574323, 2574218, 2574327, 2574413,      67,    1.39,   0.407,   20.78,   38.10,    0.13
166036729,2008-05-12T09:40:15.520,-1302.26, 6120240,  79.50, -20.04, 2574384, 2574312, 2574219, 2574321, 2574405,      56,    1.60,   0.374,   20.63,   38.69,    0.15
166036730,2008-05-12T09:40:19.554,-1298.23, 6098056,  79.55, -19.98, 2574394, 2574318, 2574227, 2574324, 2574415,      55,    2.32,   0.342,   21.42,   40.50,    0.21
166036732,2008-05-12T09:40:28.384,-1289.40, 6049430,  79.67, -19.85, 2574472, 2574344, 2574266, 2574358, 2574493,      38,    3.48,   0.312,   28.20,   45.20,    0.28
166036733,2008-05-12T09:40:32.418,-1285.36, 6027275,  79.73, -19.79, 2574382, 2574317, 2574231, 2574320, 2574403,      51,    1.62,   0.300,   23.93,   41.00,    0.16
166036734,2008-05-12T09:40:36.452,-1281.33, 6005120,  79.79, -19.73, 2574409, 2574307, 2574219, 2574309, 2574429,      59,    1.41,   0.299,   22.88,   39.63,    0.13
166036737,2008-05-12T09:40:48.554,-1269.23, 5938686,  79.98, -19.56, 2574398, 2574320, 2574219, 2574310, 2574418,      69,    1.30,   0.325,   21.16,   39.00,    0.10
166036738,2008-05-12T09:40:53.350,-1264.43, 5912394,  80.06, -19.50, 2574378, 2574331, 2574238, 2574331, 2574398,      62,    2.26,   0.339,   21.78,   39.46,    0.16
166036739,2008-05-12T09:40:57.384,-1260.40, 5890270,  80.13, -19.44, 2574336, 2574333, 2574226, 2574322, 2574356,      70,    1.65,   0.363,   20.78,   39.63,    0.09
166036740,2008-05-12T09:41:01.418,-1256.36, 5868175,  80.17, -19.39, 2574403, 2574339, 2574235, 2574329, 2574423,      72,    1.88,   0.349,   20.91,   39.90,    0.13
166036743,2008-05-12T09:41:13.520,-1244.26, 5801951,  80.31, -19.28, 2574368, 2574312, 2574205, 2574290, 2574388,      86,    0.90,   0.297,   19.51,   34.50,    0.07
166036744,2008-05-12T09:41:17.554,-1240.23, 5779916,  80.35, -19.25, 2574371, 2574329, 2574243, 2574323, 2574391,      61,    2.22,   0.258,   21.52,   39.69,    0.14
166036745,2008-05-12T09:41:22.350,-1235.43, 5753714,  80.40, -19.25, 2574447, 2574324, 2574262, 2574336, 2574467,      44,    3.00,   0.189,   23.16,   42.26,    0.24
166036746,2008-05-12T09:41:26.384,-1231.40, 5731710,  80.43, -19.25, 2574394, 2574316, 2574241, 2574309, 2574415,      64,    1.68,   0.115,   20.82,   37.85,    0.13
166036747,2008-05-12T09:41:30.418,-1227.36, 5709705,  80.46, -19.27, 2574391, 2574312, 2574240, 2574306, 2574413,      64,    1.55,   0.056,   22.22,   37.90,    0.09
166036748,2008-05-12T09:41:34.452,-1223.33, 5687700,  80.47, -19.29, 2574385, 2574315, 2574260, 2574329, 2574406,      43,    3.63,   0.129,   25.68,   43.08,    0.24
166047303,2008-05-12T10:22:34.332, 1236.55, 5759500, 211.74,  35.31, 2575103, 2574889, 2574861, 2574962, 2575124,     116,    0.54,   0.404,    8.65,   29.50,    0.38
166047304,2008-05-12T10:22:39.332, 1241.55, 5786811, 211.88,  35.27, 2575079, 2575037, 2574924, 2575019, 2575099,      94,    2.03,   0.364,   16.78,   36.21,    0.11
166047305,2008-05-12T10:22:43.366, 1245.59, 5808906, 211.96,  35.23, 2575036, 2574987, 2574885, 2574972, 2575056,      82,    1.72,   0.309,   16.62,   35.90,    0.10
166047306,2008-05-12T10:22:47.400, 1249.62, 5830971, 212.04,  35.18, 2575013, 2574987, 2574898, 2574978, 2575033,      63,    2.19,   0.253,   18.09,   37.99,    0.14
166047307,2008-05-12T10:22:51.434, 1253.65, 5853065, 212.12,  35.13, 2574987, 2574961, 2574869, 2574944, 2575008,      75,    1.63,   0.196,   16.37,   34.79,    0.10
166047308,2008-05-12T10:22:55.468, 1257.69, 5875190, 212.20,  35.09, 2574965, 2574913, 2574838, 2574911, 2574987,      66,    1.22,   0.140,   16.30,   33.62,    0.12
166047309,2008-05-12T10:22:59.502, 1261.72, 5897285, 212.27,  35.04, 2574963, 2574925, 2574857, 2574928, 2574986,      54,    1.58,   0.084,   19.46,   38.47,    0.15
166047310,2008-05-12T10:23:03.536, 1265.76, 5919379, 212.34,  35.00, 2574942, 2574926, 2574851, 2574921, 2574966,      56,    1.97,   0.045,   18.00,   36.16,    0.17